Location: Bocchiglicro
(39.4167°N, 16.7500°E)
Time: 03:10:05
(UTC+00:00)

STARLINK-27 - Pass Details

Date: 07 June 2020
Orbit: 433 x 435 km, 53.0° (Epoch: 06 July)

Event Time Altitude Azimuth Distance (km) Brightness Sun altitude
Exits shadow 00:34:16 18° 98° (E) 1,132 5.4 -23.4°
Drops below altitude 10° 00:35:44 10° 77° (ENE) 1,540 6.4 -23.2°
Enters shadow 01:31:52 -70° 231° (SW) 12,425 10.4 -17.4°
Maximum altitude 02:09:52 37° 326° (NW) 687 4.2 -12.5°
